Time,TemperatureF,DewpointF,PressureIn,WindDirection,WindDirectionDegrees,WindSpeedMPH,WindSpeedGustMPH,Humidity,HourlyPrecipIn,Conditions,Clouds,dailyrainin,SoftwareType,DateUTC
2013-06-07 00:03:00,59.0,52.8,29.99,WNW,302,0.0,3.0,80,0.00,CLR,CLR,0.00,WeatherDisplay:10.37,2013-06-07 05:03:00,
2013-06-07 00:09:00,58.9,52.7,29.99,NW,314,5.0,5.0,80,0.00,CLR,CLR,0.00,WeatherDisplay:10.37,2013-06-07 05:09:00,
2013-06-07 00:15:00,58.9,52.7,30.00,NW,311,5.0,5.0,80,0.00,CLR,CLR,0.00,WeatherDisplay:10.37,2013-06-07 05:15:00,
2013-06-07 00:21:00,58.9,52.4,30.00,NW,309,0.0,3.0,79,0.00,CLR,CLR,0.00,WeatherDisplay:10.37,2013-06-07 05:21:00,
2013-06-07 00:27:00,58.9,52.4,30.00,NW,309,0.0,0.0,79,0.00,CLR,CLR,0.00,WeatherDisplay:10.37,2013-06-07 05:27:00,
2013-06-07 00:33:00,58.7,52.2,30.00,NW,305,0.0,0.0,79,0.00,CLR,CLR,0.00,WeatherDisplay:10.37,2013-06-07 05:33:00,
2013-06-07 00:39:00,58.7,52.2,30.00,NW,306,0.0,0.0,79,0.00,CLR,CLR,0.00,WeatherDisplay:10.37,2013-06-07 05:39:00,
2013-06-07 00:45:00,58.7,52.2,30.00,NW,304,0.0,0.0,79,0.00,CLR,CLR,0.00,WeatherDisplay:10.37,2013-06-07 05:45:00,
2013-06-07 00:51:00,58.7,52.2,30.00,WNW,291,0.0,0.0,79,0.00,CLR,CLR,0.00,WeatherDisplay:10.37,2013-06-07 05:51:00,
2013-06-07 00:57:00,58.7,52.2,30.00,WNW,300,0.0,0.0,79,0.00,CLR,CLR,0.00,WeatherDisplay:10.37,2013-06-07 05:57:00,
2013-06-07 01:03:00,58.7,52.2,30.01,NW,313,0.0,0.0,79,0.00,CLR,CLR,0.00,WeatherDisplay:10.37,2013-06-07 06:03:00,
2013-06-07 01:09:00,58.5,52.0,30.01,NW,314,0.0,0.0,79,0.00,CLR,CLR,0.00,WeatherDisplay:10.37,2013-06-07 06:09:00,
2013-06-07 01:15:00,58.3,51.8,30.00,NW,310,0.0,0.0,79,0.00,CLR,CLR,0.00,WeatherDisplay:10.37,2013-06-07 06:15:00,
2013-06-07 01:21:00,58.3,51.8,30.00,NW,309,0.0,0.0,79,0.00,CLR,CLR,0.00,WeatherDisplay:10.37,2013-06-07 06:21:00,
2013-06-07 01:27:00,58.2,52.1,30.00,WNW,301,0.0,0.0,80,0.00,CLR,CLR,0.00,WeatherDisplay:10.37,2013-06-07 06:27:00,
2013-06-07 01:33:00,58.1,51.9,30.00,WNW,295,0.0,0.0,80,0.00,CLR,CLR,0.00,WeatherDisplay:10.37,2013-06-07 06:33:00,
2013-06-07 01:39:00,57.8,51.6,30.00,WNW,295,0.0,0.0,80,0.00,CLR,CLR,0.00,WeatherDisplay:10.37,2013-06-07 06:39:00,
2013-06-07 01:45:00,57.5,51.7,30.00,WNW,293,0.0,0.0,81,0.00,CLR,CLR,0.00,WeatherDisplay:10.37,2013-06-07 06:45:00,
2013-06-07 01:51:00,57.4,51.6,30.00,WNW,296,0.0,0.0,81,0.00,CLR,CLR,0.00,WeatherDisplay:10.37,2013-06-07 06:51:00,
2013-06-07 01:57:00,57.6,51.8,30.00,WNW,297,0.0,0.0,81,0.00,CLR,CLR,0.00,WeatherDisplay:10.37,2013-06-07 06:57:00,
2013-06-07 02:03:00,57.1,51.3,30.01,WNW,303,3.0,5.0,81,0.00,CLR,CLR,0.00,WeatherDisplay:10.37,2013-06-07 07:03:00,
2013-06-07 02:09:00,57.1,51.3,30.01,NW,305,0.0,0.0,81,0.00,CLR,CLR,0.00,WeatherDisplay:10.37,2013-06-07 07:09:00,
2013-06-07 02:15:00,57.1,51.3,30.01,WNW,302,3.0,5.0,81,0.00,CLR,CLR,0.00,WeatherDisplay:10.37,2013-06-07 07:15:00,
2013-06-07 02:21:00,57.1,51.3,30.01,NW,311,3.0,5.0,81,0.00,CLR,CLR,0.00,WeatherDisplay:10.37,2013-06-07 07:21:00,
2013-06-07 02:27:00,57.1,51.3,30.01,NW,305,2.0,3.0,81,0.00,CLR,CLR,0.00,WeatherDisplay:10.37,2013-06-07 07:27:00,
2013-06-07 02:33:00,57.1,51.3,30.01,WNW,302,2.0,3.0,81,0.00,CLR,CLR,0.00,WeatherDisplay:10.37,2013-06-07 07:33:00,
2013-06-07 02:39:00,57.1,51.3,30.01,WNW,300,1.0,3.0,81,0.00,CLR,CLR,0.00,WeatherDisplay:10.37,2013-06-07 07:39:00,
2013-06-07 02:45:00,56.7,50.9,30.01,WNW,296,2.0,3.0,81,0.00,CLR,CLR,0.00,WeatherDisplay:10.37,2013-06-07 07:45:00,
2013-06-07 02:51:00,56.5,50.7,30.01,WNW,302,0.0,0.0,81,0.00,CLR,CLR,0.00,WeatherDisplay:10.37,2013-06-07 07:51:00,
2013-06-07 02:57:00,56.3,50.5,30.01,WNW,293,0.0,0.0,81,0.00,CLR,CLR,0.00,WeatherDisplay:10.37,2013-06-07 07:57:00,
2013-06-07 03:03:00,56.3,50.8,30.01,West,279,0.0,0.0,82,0.00,CLR,CLR,0.00,WeatherDisplay:10.37,2013-06-07 08:03:00,
2013-06-07 03:09:00,56.3,50.8,30.01,WNW,282,0.0,0.0,82,0.00,CLR,CLR,0.00,WeatherDisplay:10.37,2013-06-07 08:09:00,
2013-06-07 03:15:00,56.0,50.5,30.02,NNW,338,0.0,0.0,82,0.00,CLR,CLR,0.00,WeatherDisplay:10.37,2013-06-07 08:15:00,
2013-06-07 03:21:00,55.4,50.3,30.02,NNW,328,0.0,0.0,83,0.00,CLR,CLR,0.00,WeatherDisplay:10.37,2013-06-07 08:21:00,
2013-06-07 03:27:00,55.3,50.8,30.01,NW,306,0.0,0.0,85,0.00,CLR,CLR,0.00,WeatherDisplay:10.37,2013-06-07 08:27:00,
2013-06-07 03:33:00,55.3,50.8,30.01,WNW,302,0.0,0.0,85,0.00,CLR,CLR,0.00,WeatherDisplay:10.37,2013-06-07 08:33:00,
2013-06-07 03:39:00,55.1,50.6,30.01,NW,308,0.0,0.0,85,0.00,CLR,CLR,0.00,WeatherDisplay:10.37,2013-06-07 08:39:00,
2013-06-07 03:45:00,55.1,50.6,30.01,NW,311,0.0,0.0,85,0.00,CLR,CLR,0.00,WeatherDisplay:10.37,2013-06-07 08:45:00,
2013-06-07 03:51:00,54.9,50.4,30.01,NNW,337,0.0,0.0,85,0.00,CLR,CLR,0.00,WeatherDisplay:10.37,2013-06-07 08:51:00,
2013-06-07 03:57:00,54.7,50.2,30.01,ENE,62,0.0,0.0,85,0.00,CLR,CLR,0.00,WeatherDisplay:10.37,2013-06-07 08:57:00,
2013-06-07 04:03:00,54.4,49.9,30.00,East,90,0.0,0.0,85,0.00,CLR,CLR,0.00,WeatherDisplay:10.37,2013-06-07 09:03:00,
2013-06-07 04:09:00,54.2,49.7,30.00,NE,53,0.0,0.0,85,0.00,CLR,CLR,0.00,WeatherDisplay:10.37,2013-06-07 09:09:00,
2013-06-07 04:15:00,53.9,49.5,30.00,NNW,348,0.0,0.0,85,0.00,CLR,CLR,0.00,WeatherDisplay:10.37,2013-06-07 09:15:00,
2013-06-07 04:21:00,53.7,49.3,30.00,North,360,0.0,0.0,85,0.00,CLR,CLR,0.00,WeatherDisplay:10.37,2013-06-07 09:21:00,
2013-06-07 04:27:00,53.6,49.5,30.00,NNW,344,0.0,0.0,86,0.00,CLR,CLR,0.00,WeatherDisplay:10.37,2013-06-07 09:27:00,
2013-06-07 04:33:00,53.4,49.3,30.00,NW,317,0.0,0.0,86,0.00,CLR,CLR,0.00,WeatherDisplay:10.37,2013-06-07 09:33:00,
2013-06-07 04:39:00,53.3,49.5,30.00,North,8,0.0,0.0,87,0.00,CLR,CLR,0.00,WeatherDisplay:10.37,2013-06-07 09:39:00,
2013-06-07 04:45:00,53.3,49.5,30.00,ENE,67,0.0,0.0,87,0.00,CLR,CLR,0.00,WeatherDisplay:10.37,2013-06-07 09:45:00,
2013-06-07 04:51:00,53.2,49.5,30.00,ENE,60,0.0,0.0,87,0.00,CLR,CLR,0.00,WeatherDisplay:10.37,2013-06-07 09:51:00,
2013-06-07 04:57:00,53.0,49.2,30.00,NNW,339,0.0,0.0,87,0.00,CLR,CLR,0.00,WeatherDisplay:10.37,2013-06-07 09:57:00,
2013-06-07 05:03:00,52.9,49.1,30.00,NE,40,0.0,0.0,87,0.00,CLR,CLR,0.00,WeatherDisplay:10.37,2013-06-07 10:03:00,
2013-06-07 05:09:00,52.9,49.4,30.00,ENE,70,0.0,0.0,88,0.00,CLR,CLR,0.00,WeatherDisplay:10.37,2013-06-07 10:09:00,
2013-06-07 05:15:00,53.1,49.6,30.01,ENE,68,0.0,0.0,88,0.00,CLR,CLR,0.00,WeatherDisplay:10.37,2013-06-07 10:15:00,
2013-06-07 05:21:00,52.7,49.3,30.01,ENE,65,0.0,0.0,88,0.00,CLR,CLR,0.00,WeatherDisplay:10.37,2013-06-07 10:21:00,
2013-06-07 05:27:00,53.6,50.4,30.01,NW,306,0.0,0.0,89,0.00,CLR,CLR,0.00,WeatherDisplay:10.37,2013-06-07 10:27:00,
2013-06-07 05:33:00,53.3,50.2,30.01,NW,304,0.0,0.0,89,0.00,CLR,CLR,0.00,WeatherDisplay:10.37,2013-06-07 10:33:00,
2013-06-07 05:39:00,52.9,49.7,30.01,NNW,344,0.0,0.0,89,0.00,CLR,CLR,0.00,WeatherDisplay:10.37,2013-06-07 10:39:00,
2013-06-07 05:45:00,52.7,49.5,30.01,NNE,29,0.0,0.0,89,0.00,CLR,CLR,0.00,WeatherDisplay:10.37,2013-06-07 10:45:00,
2013-06-07 05:51:00,52.6,49.4,30.02,ENE,76,0.0,0.0,89,0.00,CLR,CLR,0.00,WeatherDisplay:10.37,2013-06-07 10:51:00,
2013-06-07 05:57:00,52.7,49.6,30.02,NE,45,0.0,0.0,89,0.00,CLR,CLR,0.00,WeatherDisplay:10.37,2013-06-07 10:57:00,
2013-06-07 06:03:00,53.3,50.1,30.01,NW,305,0.0,0.0,89,0.00,CLR,CLR,0.00,WeatherDisplay:10.37,2013-06-07 11:03:00,
2013-06-07 06:09:00,53.1,50.5,30.01,WNW,300,0.0,0.0,91,0.00,CLR,CLR,0.00,WeatherDisplay:10.37,2013-06-07 11:09:00,
2013-06-07 06:15:00,53.1,50.5,30.01,NNE,12,0.0,0.0,91,0.00,CLR,CLR,0.00,WeatherDisplay:10.37,2013-06-07 11:15:00,
2013-06-07 06:21:00,53.1,50.5,30.01,North,11,0.0,0.0,91,0.00,CLR,CLR,0.00,WeatherDisplay:10.37,2013-06-07 11:21:00,
2013-06-07 06:27:00,53.1,50.5,30.01,NNW,343,0.0,0.0,91,0.00,CLR,CLR,0.00,WeatherDisplay:10.37,2013-06-07 11:27:00,
2013-06-07 06:33:00,53.1,50.5,30.01,ENE,62,0.0,0.0,91,0.00,FEW,FEW,0.00,WeatherDisplay:10.37,2013-06-07 11:33:00,
2013-06-07 06:39:00,52.9,50.3,30.01,ENE,73,0.0,0.0,91,0.00,FEW,FEW,0.00,WeatherDisplay:10.37,2013-06-07 11:39:00,
2013-06-07 06:45:00,53.0,50.4,30.01,ENE,66,0.0,0.0,91,0.00,FEW,FEW,0.00,WeatherDisplay:10.37,2013-06-07 11:45:00,
2013-06-07 06:51:00,53.3,50.7,30.02,ENE,70,0.0,0.0,91,0.00,FEW,FEW,0.00,WeatherDisplay:10.37,2013-06-07 11:51:00,
2013-06-07 06:57:00,53.6,51.3,30.02,NE,37,0.0,0.0,92,0.00,FEW,FEW,0.00,WeatherDisplay:10.37,2013-06-07 11:57:00,
2013-06-07 07:03:00,54.1,51.8,30.01,NNW,348,0.0,0.0,92,0.00,FEW,FEW,0.00,WeatherDisplay:10.37,2013-06-07 12:03:00,
2013-06-07 07:09:00,55.2,52.0,30.01,NW,307,0.0,0.0,89,0.00,FEW,FEW,0.00,WeatherDisplay:10.37,2013-06-07 12:09:00,
2013-06-07 07:15:00,55.9,52.1,30.01,NW,310,0.0,0.0,87,0.00,FEW,FEW,0.00,WeatherDisplay:10.37,2013-06-07 12:15:00,
2013-06-07 07:21:00,55.6,52.1,30.01,NE,39,0.0,0.0,88,0.00,FEW,FEW,0.00,WeatherDisplay:10.37,2013-06-07 12:21:00,
2013-06-07 07:27:00,55.6,52.4,30.01,ENE,57,0.0,0.0,89,0.00,FEW,FEW,0.00,WeatherDisplay:10.37,2013-06-07 12:27:00,
2013-06-07 07:33:00,56.2,53.0,30.01,NE,43,0.0,0.0,89,0.00,FEW,FEW,0.00,WeatherDisplay:10.37,2013-06-07 12:33:00,
2013-06-07 07:39:00,56.3,53.1,30.01,ENE,63,0.0,0.0,89,0.00,FEW,FEW,0.00,WeatherDisplay:10.37,2013-06-07 12:39:00,
2013-06-07 07:45:00,56.9,53.3,30.01,NE,54,2.0,6.0,88,0.00,FEW,FEW,0.00,WeatherDisplay:10.37,2013-06-07 12:45:00,
2013-06-07 07:51:00,57.4,53.2,30.01,NE,46,0.0,0.0,86,0.00,FEW,FEW,0.00,WeatherDisplay:10.37,2013-06-07 12:51:00,
2013-06-07 07:57:00,58.7,53.2,30.01,NE,55,0.0,0.0,82,0.00,FEW,FEW,0.00,WeatherDisplay:10.37,2013-06-07 12:57:00,
2013-06-07 08:03:00,58.8,54.0,30.02,ENE,63,0.0,0.0,84,0.00,FEW,FEW,0.00,WeatherDisplay:10.37,2013-06-07 13:03:00,
2013-06-07 08:09:00,59.3,53.5,30.02,NNW,342,0.0,0.0,81,0.00,FEW,FEW,0.00,WeatherDisplay:10.37,2013-06-07 13:09:00,
2013-06-07 08:15:00,60.0,53.8,30.03,NW,306,0.0,0.0,80,0.00,FEW,FEW,0.00,WeatherDisplay:10.37,2013-06-07 13:15:00,
2013-06-07 08:21:00,60.8,54.2,30.03,NW,326,0.0,0.0,79,0.00,FEW,FEW,0.00,WeatherDisplay:10.37,2013-06-07 13:21:00,
2013-06-07 08:27:00,61.7,55.1,30.03,WNW,299,0.0,0.0,79,0.00,FEW,FEW,0.00,WeatherDisplay:10.37,2013-06-07 13:27:00,
2013-06-07 08:33:00,62.6,55.2,30.03,NW,323,3.0,6.0,77,0.00,SCT,SCT,0.00,WeatherDisplay:10.37,2013-06-07 13:33:00,
2013-06-07 08:39:00,63.0,55.6,30.03,WNW,290,3.0,7.0,77,0.00,SCT,SCT,0.00,WeatherDisplay:10.37,2013-06-07 13:39:00,
2013-06-07 08:45:00,63.4,55.7,30.03,WNW,299,5.0,7.0,76,0.00,SCT,SCT,0.00,WeatherDisplay:10.37,2013-06-07 13:45:00,
2013-06-07 08:51:00,63.4,56.0,30.03,WNW,297,3.0,5.0,77,0.00,SCT,SCT,0.00,WeatherDisplay:10.37,2013-06-07 13:51:00,
2013-06-07 08:57:00,64.1,56.0,30.03,WNW,300,6.0,6.0,75,0.00,SCT,SCT,0.00,WeatherDisplay:10.37,2013-06-07 13:57:00,
2013-06-07 09:03:00,65.1,56.2,30.03,WNW,303,0.0,3.0,73,0.00,SCT,SCT,0.00,WeatherDisplay:10.37,2013-06-07 14:03:00,
2013-06-07 09:09:00,66.1,56.0,30.03,NNW,345,0.0,3.0,70,0.00,SCT,SCT,0.00,WeatherDisplay:10.37,2013-06-07 14:09:00,
2013-06-07 09:15:00,66.4,56.3,30.04,NW,304,0.0,5.0,70,0.00,SCT,SCT,0.00,WeatherDisplay:10.37,2013-06-07 14:15:00,
2013-06-07 09:21:00,67.6,56.6,30.04,WNW,303,5.0,5.0,68,0.00,SCT,SCT,0.00,WeatherDisplay:10.37,2013-06-07 14:21:00,
2013-06-07 09:27:00,68.1,56.7,30.04,NW,311,3.0,5.0,67,0.00,SCT,SCT,0.00,WeatherDisplay:10.37,2013-06-07 14:27:00,
2013-06-07 09:33:00,69.4,56.7,30.04,NNW,348,3.0,5.0,64,0.00,SCT,SCT,0.00,WeatherDisplay:10.37,2013-06-07 14:33:00,
2013-06-07 09:39:00,69.9,56.7,30.04,NNE,20,5.0,7.0,63,0.00,SCT,SCT,0.00,WeatherDisplay:10.37,2013-06-07 14:39:00,
2013-06-07 09:45:00,71.4,57.7,30.04,NNW,342,2.0,4.0,62,0.00,SCT,SCT,0.00,WeatherDisplay:10.37,2013-06-07 14:45:00,
2013-06-07 09:51:00,71.7,56.1,30.04,ENE,64,1.0,3.0,58,0.00,SCT,SCT,0.00,WeatherDisplay:10.37,2013-06-07 14:51:00,
2013-06-07 09:57:00,72.4,57.3,30.04,East,97,2.0,4.0,59,0.00,SCT,SCT,0.00,WeatherDisplay:10.37,2013-06-07 14:57:00,
2013-06-07 10:03:00,73.4,56.8,30.04,NE,44,3.0,5.0,56,0.00,SCT,SCT,0.00,WeatherDisplay:10.37,2013-06-07 15:03:00,
2013-06-07 10:09:00,74.7,56.5,30.04,NNE,15,2.0,4.0,53,0.00,SCT,SCT,0.00,WeatherDisplay:10.37,2013-06-07 15:09:00,
2013-06-07 10:15:00,76.2,56.2,30.04,NE,40,2.0,6.0,50,0.00,SCT,SCT,0.00,WeatherDisplay:10.37,2013-06-07 15:15:00,
2013-06-07 10:21:00,74.8,56.5,30.04,ENE,59,2.0,7.0,53,0.00,SCT,SCT,0.00,WeatherDisplay:10.37,2013-06-07 15:21:00,
2013-06-07 10:27:00,74.8,56.0,30.03,ENE,62,3.0,5.0,52,0.00,SCT,SCT,0.00,WeatherDisplay:10.37,2013-06-07 15:27:00,
2013-06-07 10:33:00,76.3,55.8,30.03,NNE,33,6.0,7.0,49,0.00,SCT,SCT,0.00,WeatherDisplay:10.37,2013-06-07 15:33:00,
2013-06-07 10:39:00,76.2,53.9,30.03,NNW,332,6.0,6.0,46,0.00,SCT,SCT,0.00,WeatherDisplay:10.37,2013-06-07 15:39:00,
2013-06-07 10:45:00,74.5,54.6,30.03,West,272,1.0,5.0,50,0.00,SCT,SCT,0.00,WeatherDisplay:10.37,2013-06-07 15:45:00,
2013-06-07 10:51:00,76.3,54.6,30.02,WSW,254,2.0,5.0,47,0.00,SCT,SCT,0.00,WeatherDisplay:10.37,2013-06-07 15:51:00,
2013-06-07 10:57:00,78.4,54.0,30.02,WNW,290,3.0,8.0,43,0.00,SCT,SCT,0.00,WeatherDisplay:10.37,2013-06-07 15:57:00,
2013-06-07 11:03:00,77.2,53.0,30.02,NW,313,5.0,6.0,43,0.00,SCT,SCT,0.00,WeatherDisplay:10.37,2013-06-07 16:03:00,
2013-06-07 11:09:00,75.8,54.7,30.02,North,350,5.0,7.0,48,0.00,SCT,SCT,0.00,WeatherDisplay:10.37,2013-06-07 16:09:00,
2013-06-07 11:15:00,74.2,53.2,30.02,NW,312,3.0,8.0,48,0.00,SCT,SCT,0.00,WeatherDisplay:10.37,2013-06-07 16:15:00,
2013-06-07 11:21:00,75.0,52.2,30.02,North,358,1.0,5.0,45,0.00,SCT,SCT,0.00,WeatherDisplay:10.37,2013-06-07 16:21:00,
2013-06-07 11:27:00,75.8,54.7,30.02,East,81,3.0,6.0,48,0.00,SCT,SCT,0.00,WeatherDisplay:10.37,2013-06-07 16:27:00,
2013-06-07 11:33:00,74.1,53.7,30.02,SW,224,5.0,7.0,49,0.00,SCT,SCT,0.00,WeatherDisplay:10.37,2013-06-07 16:33:00,
2013-06-07 11:39:00,74.2,52.6,30.02,WNW,299,3.0,4.0,47,0.00,SCT,SCT,0.00,WeatherDisplay:10.37,2013-06-07 16:39:00,
2013-06-07 11:45:00,74.5,54.0,30.02,WNW,286,1.0,3.0,49,0.00,SCT,SCT,0.00,WeatherDisplay:10.37,2013-06-07 16:45:00,
2013-06-07 11:51:00,74.8,53.8,30.02,NNW,339,5.0,11.0,48,0.00,SCT,SCT,0.00,WeatherDisplay:10.37,2013-06-07 16:51:00,
2013-06-07 11:57:00,76.2,52.7,30.02,NNW,341,6.0,7.0,44,0.00,SCT,SCT,0.00,WeatherDisplay:10.37,2013-06-07 16:57:00,
2013-06-07 12:03:00,76.3,54.0,30.01,WNW,303,2.0,10.0,46,0.00,BKN,BKN,0.00,WeatherDisplay:10.37,2013-06-07 17:03:00,
2013-06-07 12:09:00,75.7,52.2,30.01,WNW,302,3.0,9.0,44,0.00,BKN,BKN,0.00,WeatherDisplay:10.37,2013-06-07 17:09:00,
2013-06-07 12:15:00,74.3,52.8,30.01,NW,308,3.0,9.0,47,0.00,BKN,BKN,0.00,WeatherDisplay:10.37,2013-06-07 17:15:00,
2013-06-07 12:21:00,74.9,53.8,30.01,NNE,23,6.0,8.0,48,0.00,BKN,BKN,0.00,WeatherDisplay:10.37,2013-06-07 17:21:00,
2013-06-07 12:27:00,76.8,54.5,30.00,ENE,57,6.0,7.0,46,0.00,BKN,BKN,0.00,WeatherDisplay:10.37,2013-06-07 17:27:00,
2013-06-07 12:33:00,76.6,54.3,30.00,SE,131,2.0,5.0,46,0.00,BKN,BKN,0.00,WeatherDisplay:10.37,2013-06-07 17:33:00,
2013-06-07 12:39:00,78.3,54.6,30.00,ESE,105,2.0,7.0,44,0.00,BKN,BKN,0.00,WeatherDisplay:10.37,2013-06-07 17:39:00,
2013-06-07 12:45:00,78.6,56.1,30.00,ENE,58,5.0,6.0,46,0.00,BKN,BKN,0.00,WeatherDisplay:10.37,2013-06-07 17:45:00,
2013-06-07 12:51:00,77.0,52.8,30.00,NW,319,7.0,8.0,43,0.00,BKN,BKN,0.00,WeatherDisplay:10.37,2013-06-07 17:51:00,
2013-06-07 12:57:00,76.6,53.0,30.00,NW,309,3.0,7.0,44,0.00,BKN,BKN,0.00,WeatherDisplay:10.37,2013-06-07 17:57:00,
2013-06-07 13:03:00,77.7,54.0,29.99,NNW,328,5.0,8.0,44,0.00,BKN,BKN,0.00,WeatherDisplay:10.37,2013-06-07 18:03:00,
2013-06-07 13:09:00,77.9,53.6,29.99,NNW,336,2.0,7.0,43,0.00,BKN,BKN,0.00,WeatherDisplay:10.37,2013-06-07 18:09:00,
2013-06-07 13:15:00,76.1,54.4,29.99,NNW,347,3.0,8.0,47,0.00,BKN,BKN,0.00,WeatherDisplay:10.37,2013-06-07 18:15:00,
2013-06-07 13:21:00,75.2,54.8,29.99,North,6,3.0,6.0,49,0.00,BKN,BKN,0.00,WeatherDisplay:10.37,2013-06-07 18:21:00,
2013-06-07 13:27:00,76.8,54.5,29.99,East,98,6.0,8.0,46,0.00,BKN,BKN,0.00,WeatherDisplay:10.37,2013-06-07 18:27:00,
2013-06-07 13:33:00,76.1,54.4,29.99,ENE,70,3.0,5.0,47,0.00,BKN,BKN,0.00,WeatherDisplay:10.37,2013-06-07 18:33:00,
2013-06-07 13:42:00,75.9,54.2,29.99,North,357,2.0,5.0,47,0.00,BKN,BKN,0.00,WeatherDisplay:10.37,2013-06-07 18:42:00,
2013-06-07 13:51:00,78.6,55.4,29.99,North,354,3.0,5.0,45,0.00,BKN,BKN,0.00,WeatherDisplay:10.37,2013-06-07 18:51:00,
2013-06-07 13:57:00,77.1,54.2,29.99,North,1,2.0,3.0,45,0.00,BKN,BKN,0.00,WeatherDisplay:10.37,2013-06-07 18:57:00,
2013-06-07 14:03:00,76.7,54.3,29.98,West,265,0.0,2.0,46,0.00,BKN,BKN,0.00,WeatherDisplay:10.37,2013-06-07 19:03:00,
2013-06-07 14:09:00,76.3,54.0,29.98,WNW,302,5.0,5.0,46,0.00,BKN,BKN,0.00,WeatherDisplay:10.37,2013-06-07 19:09:00,
2013-06-07 14:15:00,77.1,54.7,29.98,West,266,2.0,3.0,46,0.00,BKN,BKN,0.00,WeatherDisplay:10.37,2013-06-07 19:15:00,
2013-06-07 14:21:00,77.8,56.0,29.98,ENE,77,6.0,8.0,47,0.00,BKN,BKN,0.00,WeatherDisplay:10.37,2013-06-07 19:21:00,
2013-06-07 14:27:00,77.5,55.1,29.98,ENE,66,3.0,8.0,46,0.00,BKN,BKN,0.00,WeatherDisplay:10.37,2013-06-07 19:27:00,
2013-06-07 14:33:00,77.9,54.8,29.98,ENE,71,2.0,5.0,45,0.00,BKN,BKN,0.00,WeatherDisplay:10.37,2013-06-07 19:33:00,
2013-06-07 14:39:00,77.5,55.1,29.98,ESE,103,1.0,4.0,46,0.00,BKN,BKN,0.00,WeatherDisplay:10.37,2013-06-07 19:39:00,
2013-06-07 14:45:00,77.5,55.1,29.98,East,98,0.0,2.0,46,0.00,BKN,BKN,0.00,WeatherDisplay:10.37,2013-06-07 19:45:00,
2013-06-07 14:51:00,78.3,54.5,29.98,NW,313,1.0,3.0,44,0.00,BKN,BKN,0.00,WeatherDisplay:10.37,2013-06-07 19:51:00,
2013-06-07 14:57:00,78.1,54.4,29.98,West,263,2.0,4.0,44,0.00,BKN,BKN,0.00,WeatherDisplay:10.37,2013-06-07 19:57:00,
2013-06-07 15:03:00,79.0,54.6,29.98,South,187,2.0,4.0,43,0.00,BKN,BKN,0.00,WeatherDisplay:10.37,2013-06-07 20:03:00,
2013-06-07 15:09:00,78.7,54.3,29.98,WSW,243,6.0,7.0,43,0.00,BKN,BKN,0.00,WeatherDisplay:10.37,2013-06-07 20:09:00,
2013-06-07 15:15:00,78.4,53.4,29.98,SW,214,2.0,6.0,42,0.00,BKN,BKN,0.00,WeatherDisplay:10.37,2013-06-07 20:15:00,
2013-06-07 15:21:00,77.6,53.9,29.98,SSE,161,3.0,7.0,44,0.00,BKN,BKN,0.00,WeatherDisplay:10.37,2013-06-07 20:21:00,
2013-06-07 15:27:00,77.5,53.2,29.97,West,273,5.0,7.0,43,0.00,BKN,BKN,0.00,WeatherDisplay:10.37,2013-06-07 20:27:00,
2013-06-07 15:33:00,78.1,53.8,29.97,WNW,283,3.0,6.0,43,0.00,BKN,BKN,0.00,WeatherDisplay:10.37,2013-06-07 20:33:00,
2013-06-07 15:39:00,78.1,53.8,29.97,SSW,204,2.0,3.0,43,0.00,BKN,BKN,0.00,WeatherDisplay:10.37,2013-06-07 20:39:00,
2013-06-07 15:45:00,78.0,53.7,29.97,East,100,3.0,7.0,43,0.00,BKN,BKN,0.00,WeatherDisplay:10.37,2013-06-07 20:45:00,
2013-06-07 15:51:00,80.6,54.0,29.97,ESE,107,3.0,4.0,40,0.00,BKN,BKN,0.00,WeatherDisplay:10.37,2013-06-07 20:51:00,
2013-06-07 15:57:00,80.1,55.6,29.97,ENE,65,3.0,6.0,43,0.00,BKN,BKN,0.00,WeatherDisplay:10.37,2013-06-07 20:57:00,
2013-06-07 16:03:00,81.2,55.9,29.96,East,79,1.0,5.0,42,0.00,BKN,BKN,0.00,WeatherDisplay:10.37,2013-06-07 21:03:00,
2013-06-07 16:09:00,80.9,55.0,29.96,WNW,300,5.0,8.0,41,0.00,BKN,BKN,0.00,WeatherDisplay:10.37,2013-06-07 21:09:00,
2013-06-07 16:15:00,80.5,55.9,29.95,NNE,13,3.0,5.0,43,0.00,BKN,BKN,0.00,WeatherDisplay:10.37,2013-06-07 21:15:00,
2013-06-07 16:21:00,80.8,56.2,29.95,ESE,113,5.0,7.0,43,0.00,BKN,BKN,0.00,WeatherDisplay:10.37,2013-06-07 21:21:00,
2013-06-07 16:27:00,80.7,54.8,29.96,NE,42,6.0,8.0,41,0.00,BKN,BKN,0.00,WeatherDisplay:10.37,2013-06-07 21:27:00,
2013-06-07 16:33:00,79.8,54.6,29.96,SW,227,1.0,4.0,42,0.00,BKN,BKN,0.00,WeatherDisplay:10.37,2013-06-07 21:33:00,
2013-06-07 16:39:00,82.3,57.5,29.95,ESE,104,2.0,7.0,43,0.00,BKN,BKN,0.00,WeatherDisplay:10.37,2013-06-07 21:39:00,
2013-06-07 16:48:00,81.0,55.1,29.94,SSE,157,2.0,6.0,41,0.00,BKN,BKN,0.00,WeatherDisplay:10.37,2013-06-07 21:48:00,
2013-06-07 16:54:00,80.1,56.2,29.94,East,96,5.0,6.0,44,0.00,BKN,BKN,0.00,WeatherDisplay:10.37,2013-06-07 21:54:00,
2013-06-07 17:00:00,81.3,56.0,29.94,ENE,72,3.0,5.0,42,0.00,BKN,BKN,0.00,WeatherDisplay:10.37,2013-06-07 22:00:00,
2013-06-07 17:06:00,78.0,56.1,29.94,ESE,123,3.0,4.0,47,0.00,BKN,BKN,0.00,WeatherDisplay:10.37,2013-06-07 22:06:00,
2013-06-07 17:12:00,77.4,55.6,29.94,East,96,2.0,6.0,47,0.00,BKN,BKN,0.00,WeatherDisplay:10.37,2013-06-07 22:12:00,
2013-06-07 17:18:00,78.7,55.0,29.93,ENE,61,5.0,8.0,44,0.00,BKN,BKN,0.00,WeatherDisplay:10.37,2013-06-07 22:18:00,
2013-06-07 17:24:00,77.8,55.9,29.93,ENE,57,3.0,6.0,47,0.00,BKN,BKN,0.00,WeatherDisplay:10.37,2013-06-07 22:24:00,
2013-06-07 17:33:00,79.0,55.9,29.93,NE,56,5.0,7.0,45,0.00,BKN,BKN,0.00,WeatherDisplay:10.37,2013-06-07 22:33:00,
2013-06-07 17:39:00,78.2,55.7,29.92,ENE,73,5.0,8.0,46,0.00,BKN,BKN,0.00,WeatherDisplay:10.37,2013-06-07 22:39:00,
2013-06-07 17:45:00,78.7,56.7,29.92,East,87,3.0,5.0,47,0.00,BKN,BKN,0.00,WeatherDisplay:10.37,2013-06-07 22:45:00,
2013-06-07 17:51:00,78.8,55.6,29.92,ENE,70,5.0,5.0,45,0.00,BKN,BKN,0.00,WeatherDisplay:10.37,2013-06-07 22:51:00,
2013-06-07 18:00:00,77.5,55.7,29.92,East,91,1.0,2.0,47,0.00,BKN,BKN,0.00,WeatherDisplay:10.37,2013-06-07 23:00:00,
2013-06-07 18:06:00,78.0,54.9,29.92,East,87,3.0,5.0,45,0.00,BKN,BKN,0.00,WeatherDisplay:10.37,2013-06-07 23:06:00,
2013-06-07 18:12:00,78.8,55.7,29.92,East,96,1.0,3.0,45,0.00,BKN,BKN,0.00,WeatherDisplay:10.37,2013-06-07 23:12:00,
2013-06-07 18:18:00,78.2,55.7,29.91,North,3,2.0,5.0,46,0.00,BKN,BKN,0.00,WeatherDisplay:10.37,2013-06-07 23:18:00,
2013-06-07 18:24:00,78.8,56.2,29.91,SE,144,1.0,7.0,46,0.00,BKN,BKN,0.00,WeatherDisplay:10.37,2013-06-07 23:24:00,
2013-06-07 18:30:00,78.0,56.1,29.91,SE,127,1.0,3.0,47,0.00,BKN,BKN,0.00,WeatherDisplay:10.37,2013-06-07 23:30:00,
2013-06-07 18:36:00,78.2,55.7,29.91,SE,139,0.0,3.0,46,0.00,SCT,SCT,0.00,WeatherDisplay:10.37,2013-06-07 23:36:00,
2013-06-07 18:42:00,78.4,55.9,29.92,SE,143,2.0,7.0,46,0.00,SCT,SCT,0.00,WeatherDisplay:10.37,2013-06-07 23:42:00,
2013-06-07 18:48:00,78.1,56.2,29.92,ESE,112,3.0,7.0,47,0.00,SCT,SCT,0.00,WeatherDisplay:10.37,2013-06-07 23:48:00,
2013-06-07 18:54:00,78.3,55.8,29.92,SE,138,2.0,5.0,46,0.00,SCT,SCT,0.00,WeatherDisplay:10.37,2013-06-07 23:54:00,
2013-06-07 19:00:00,78.8,56.3,29.92,East,90,0.0,2.0,46,0.00,SCT,SCT,0.00,WeatherDisplay:10.37,2013-06-08 00:00:00,
2013-06-07 19:09:00,78.3,55.8,29.91,ESE,121,3.0,5.0,46,0.00,SCT,SCT,0.00,WeatherDisplay:10.37,2013-06-08 00:09:00,
2013-06-07 19:15:00,78.0,55.5,29.91,East,89,2.0,4.0,46,0.00,SCT,SCT,0.00,WeatherDisplay:10.37,2013-06-08 00:15:00,
2013-06-07 19:21:00,77.8,55.9,29.91,ESE,108,2.0,5.0,47,0.00,SCT,SCT,0.00,WeatherDisplay:10.37,2013-06-08 00:21:00,
2013-06-07 19:27:00,78.0,56.1,29.90,SE,127,3.0,7.0,47,0.00,SCT,SCT,0.00,WeatherDisplay:10.37,2013-06-08 00:27:00,
2013-06-07 19:33:00,77.5,55.1,29.90,ESE,109,2.0,5.0,46,0.00,SCT,SCT,0.00,WeatherDisplay:10.37,2013-06-08 00:33:00,
2013-06-07 19:39:00,77.0,56.3,29.90,ENE,77,2.0,3.0,49,0.00,SCT,SCT,0.00,WeatherDisplay:10.37,2013-06-08 00:39:00,
2013-06-07 19:45:00,76.7,55.5,29.90,East,81,2.0,4.0,48,0.00,SCT,SCT,0.00,WeatherDisplay:10.37,2013-06-08 00:45:00,
2013-06-07 19:51:00,77.1,55.3,29.91,ENE,74,1.0,4.0,47,0.00,SCT,SCT,0.00,WeatherDisplay:10.37,2013-06-08 00:51:00,
2013-06-07 19:57:00,76.3,55.7,29.91,ESE,119,2.0,3.0,49,0.00,SCT,SCT,0.00,WeatherDisplay:10.37,2013-06-08 00:57:00,
2013-06-07 20:03:00,77.8,56.6,29.91,ESE,107,2.0,4.0,48,0.00,SCT,SCT,0.00,WeatherDisplay:10.37,2013-06-08 01:03:00,
2013-06-07 20:09:00,77.4,56.2,29.91,ESE,120,3.0,6.0,48,0.00,SCT,SCT,0.00,WeatherDisplay:10.37,2013-06-08 01:09:00,
2013-06-07 20:15:00,76.3,56.3,29.91,SE,127,1.0,3.0,50,0.00,SCT,SCT,0.00,WeatherDisplay:10.37,2013-06-08 01:15:00,
2013-06-07 20:24:00,75.4,56.5,29.91,ESE,110,1.0,3.0,52,0.00,SCT,SCT,0.00,WeatherDisplay:10.37,2013-06-08 01:24:00,
2013-06-07 20:30:00,74.3,56.0,29.91,East,95,1.0,2.0,53,0.00,SCT,SCT,0.00,WeatherDisplay:10.37,2013-06-08 01:30:00,
2013-06-07 20:36:00,73.7,55.5,29.91,ESE,121,2.0,4.0,53,0.00,SCT,SCT,0.00,WeatherDisplay:10.37,2013-06-08 01:36:00,
2013-06-07 20:42:00,73.1,55.5,29.92,ESE,111,1.0,3.0,54,0.00,SCT,SCT,0.00,WeatherDisplay:10.37,2013-06-08 01:42:00,
2013-06-07 20:48:00,72.4,55.3,29.92,ESE,121,0.0,2.0,55,0.00,SCT,SCT,0.00,WeatherDisplay:10.37,2013-06-08 01:48:00,
2013-06-07 20:54:00,72.1,55.0,29.91,SE,126,0.0,2.0,55,0.00,SCT,SCT,0.00,WeatherDisplay:10.37,2013-06-08 01:54:00,
2013-06-07 21:00:00,71.6,55.0,29.91,ESE,112,1.0,5.0,56,0.00,SCT,SCT,0.00,WeatherDisplay:10.37,2013-06-08 02:00:00,
2013-06-07 21:06:00,71.3,54.8,29.92,ESE,109,1.0,3.0,56,0.00,SCT,SCT,0.00,WeatherDisplay:10.37,2013-06-08 02:06:00,
2013-06-07 21:12:00,70.8,54.8,29.92,East,82,0.0,0.0,57,0.00,SCT,SCT,0.00,WeatherDisplay:10.37,2013-06-08 02:12:00,
2013-06-07 21:18:00,70.4,54.9,29.92,ENE,77,0.0,0.0,58,0.00,SCT,SCT,0.00,WeatherDisplay:10.37,2013-06-08 02:18:00,
2013-06-07 21:24:00,70.0,54.5,29.92,East,89,1.0,3.0,58,0.00,SCT,SCT,0.00,WeatherDisplay:10.37,2013-06-08 02:24:00,
2013-06-07 21:30:00,69.7,54.3,29.92,East,99,0.0,0.0,58,0.00,SCT,SCT,0.00,WeatherDisplay:10.37,2013-06-08 02:30:00,
2013-06-07 21:36:00,69.4,54.4,29.92,East,94,0.0,3.0,59,0.00,SCT,SCT,0.00,WeatherDisplay:10.37,2013-06-08 02:36:00,
2013-06-07 21:42:00,68.9,54.4,29.92,East,97,1.0,3.0,60,0.00,SCT,SCT,0.00,WeatherDisplay:10.37,2013-06-08 02:42:00,
2013-06-07 21:48:00,68.8,54.4,29.92,ESE,115,0.0,0.0,60,0.00,SCT,SCT,0.00,WeatherDisplay:10.37,2013-06-08 02:48:00,
2013-06-07 21:54:00,68.4,54.0,29.92,ESE,109,0.0,0.0,60,0.00,SCT,SCT,0.00,WeatherDisplay:10.37,2013-06-08 02:54:00,
2013-06-07 22:00:00,68.2,54.6,29.92,ESE,118,0.0,2.0,62,0.00,SCT,SCT,0.00,WeatherDisplay:10.37,2013-06-08 03:00:00,
2013-06-07 22:06:00,68.0,54.5,29.92,SE,125,2.0,5.0,62,0.00,SCT,SCT,0.00,WeatherDisplay:10.37,2013-06-08 03:06:00,
2013-06-07 22:12:00,68.0,54.5,29.92,ESE,115,0.0,4.0,62,0.00,SCT,SCT,0.00,WeatherDisplay:10.37,2013-06-08 03:12:00,
2013-06-07 22:18:00,68.0,54.5,29.93,SE,132,2.0,4.0,62,0.00,SCT,SCT,0.00,WeatherDisplay:10.37,2013-06-08 03:18:00,
2013-06-07 22:24:00,67.9,54.8,29.93,ESE,122,1.0,5.0,63,0.00,SCT,SCT,0.00,WeatherDisplay:10.37,2013-06-08 03:24:00,
2013-06-07 22:30:00,67.7,55.0,29.93,ENE,77,1.0,3.0,64,0.00,SCT,SCT,0.00,WeatherDisplay:10.37,2013-06-08 03:30:00,
2013-06-07 22:36:00,67.5,54.9,29.93,East,88,1.0,2.0,64,0.00,SCT,SCT,0.00,WeatherDisplay:10.37,2013-06-08 03:36:00,
2013-06-07 22:42:00,67.3,55.1,29.93,ESE,113,1.0,5.0,65,0.00,SCT,SCT,0.00,WeatherDisplay:10.37,2013-06-08 03:42:00,
2013-06-07 22:48:00,67.0,54.8,29.93,East,99,0.0,2.0,65,0.00,SCT,SCT,0.00,WeatherDisplay:10.37,2013-06-08 03:48:00,
2013-06-07 22:54:00,66.7,55.0,29.93,East,79,0.0,0.0,66,0.00,SCT,SCT,0.00,WeatherDisplay:10.37,2013-06-08 03:54:00,
2013-06-07 23:00:00,66.2,54.5,29.93,East,79,0.0,2.0,66,0.00,SCT,SCT,0.00,WeatherDisplay:10.37,2013-06-08 04:00:00,
2013-06-07 23:03:00,66.2,54.5,29.92,East,101,0.0,2.0,66,0.00,SCT,SCT,0.00,WeatherDisplay:10.37,2013-06-08 04:03:00,
2013-06-07 23:09:00,66.2,54.9,29.92,SE,125,1.0,3.0,67,0.00,SCT,SCT,0.00,WeatherDisplay:10.37,2013-06-08 04:09:00,
2013-06-07 23:12:00,66.2,54.9,29.92,ESE,119,0.0,3.0,67,0.00,SCT,SCT,0.00,WeatherDisplay:10.37,2013-06-08 04:12:00,
2013-06-07 23:18:00,66.2,54.9,29.92,ESE,103,1.0,3.0,67,0.00,SCT,SCT,0.00,WeatherDisplay:10.37,2013-06-08 04:18:00,
2013-06-07 23:24:00,66.2,54.9,29.92,East,91,0.0,3.0,67,0.00,SCT,SCT,0.00,WeatherDisplay:10.37,2013-06-08 04:24:00,
2013-06-07 23:27:00,66.2,54.9,29.92,East,96,0.0,0.0,67,0.00,SCT,SCT,0.00,WeatherDisplay:10.37,2013-06-08 04:27:00,
2013-06-07 23:30:00,66.1,54.8,29.92,East,95,0.0,2.0,67,0.00,SCT,SCT,0.00,WeatherDisplay:10.37,2013-06-08 04:30:00,
2013-06-07 23:36:00,65.7,54.8,29.92,East,84,0.0,0.0,68,0.00,SCT,SCT,0.00,WeatherDisplay:10.37,2013-06-08 04:36:00,
2013-06-07 23:42:00,65.3,54.4,29.92,East,92,1.0,3.0,68,0.00,SCT,SCT,0.00,WeatherDisplay:10.37,2013-06-08 04:42:00,
2013-06-07 23:48:00,65.7,54.8,29.92,East,96,0.0,0.0,68,0.00,SCT,SCT,0.00,WeatherDisplay:10.37,2013-06-08 04:48:00,
2013-06-07 23:54:00,65.5,54.6,29.91,SE,124,0.0,0.0,68,0.00,SCT,SCT,0.00,WeatherDisplay:10.37,2013-06-08 04:54:00,